EW1233 Weather Reports


Display with metric or nautical units.
time (UTC)temp
F
wind
direction
speed
MPH
gust
MPH
rain 1hr
in
rain 24hr
in
rain mn
in
humidity
%
barometer
mb
20260906203111 70 143 0.0 8.0 0.01 0.41 0.38 97 1009.1
20260906201550 68 318 1.0 4.0 0.01 0.41 0.38 97 1009.2
20260906200015 67 318 2.0 4.0 0.02 0.41 0.38 96 1009.3
20260906194547 67 318 3.0 5.0 0.03 0.41 0.38 96 1010.2
20260906193108 67 318 0.0 6.0 0.02 0.40 0.37 96 1011.1
20260906191529 67 315 3.0 6.0 0.02 0.40 0.37 96 1011.7
20260906190029 67 315 2.0 4.0 0.02 0.39 0.36 96 1011.7
20260906184529 67 315 1.0 5.0 0.19 0.38 0.35 96 1011.7
20260906183036 67 290 5.0 13.0 0.34 0.38 0.35 95 1012.3
20260906181529 68 232 3.0 10.0 0.34 0.38 0.35 95 1012.8
20260906180036 67 231 7.0 22.0 0.33 0.37 0.34 95 1011.7
20260906174533 68 220 23.0 31.0 0.14 0.18 0.15 92 1011.8
20260906173022 72 210 10.0 24.0 0.00 0.04 0.01 93 1012.3
20260906171515 73 179 11.0 22.0 0.00 0.04 0.01 94 1011.7
20260906170013 74 173 10.0 18.0 0.00 0.04 0.01 94 1011.1
20260906164523 74 184 9.0 15.0 0.01 0.04 0.01 95 1011.4
20260906163021 74 146 11.0 16.0 0.01 0.04 0.01 94 1011.4
20260906161511 74 180 7.0 19.0 0.01 0.04 0.01 94 1011.5
20260906160009 74 186 8.0 15.0 0.01 0.04 0.01 94 1011.3
20260906154510 73 161 12.0 19.0 0.00 0.03 0.00 94 1011.3
20260906153003 74 194 8.0 12.0 0.00 0.03 0.00 93 1011.1
20260906151559 74 167 5.0 10.0 0.00 0.03 0.00 94 1010.6
20260906144603 73 121 3.0 9.0 0.00 0.03 0.00 94 1010.1
20260906143051 72 122 5.0 12.0 0.00 0.03 0.00 94 1010.1
20260906141548 72 97 2.0 9.0 0.00 0.03 0.00 95 1009.9
20260906140045 71 219 3.0 11.0 0.00 0.03 0.00 95 1010.7
20260906134543 71 83 2.0 10.0 0.00 0.03 0.00 94 1009.7
20260906133043 71 92 1.0 7.0 0.00 0.03 0.00 94 1009.8
20260906131542 71 93 3.0 7.0 0.00 0.03 0.00 95 1010.2
20260906130047 70 50 0.0 13.0 0.00 0.03 0.00 94 1010.5
20260906124540 70 9 4.0 8.0 0.00 0.03 0.00 94 1010.3
20260906123040 70 136 0.0 4.0 0.00 0.03 0.00 95 1010.6
20260906121539 70 136 0.0 4.0 0.00 0.03 0.00 95 1010.7
20260906120047 70 136 2.0 4.0 0.00 0.03 0.00 95 1010.9
20260906114540 70 136 3.0 7.0 0.00 0.03 0.00 94 1010.9
20260906113035 70 67 0.0 3.0 0.00 0.03 0.00 94 1010.5
20260906111534 70 99 2.0 5.0 0.00 0.03 0.00 94 1009.8
20260906110040 70 5 2.0 7.0 0.00 0.03 0.00 94 1009.5
20260906104532 70 5 3.0 7.0 0.00 0.04 0.00 93 1009.6
20260906103032 70 121 0.0 8.0 0.00 0.04 0.00 94 1009.9
20260906101531 70 121 4.0 10.0 0.00 0.04 0.00 94 1010.0
20260906100031 70 140 9.0 15.0 0.00 0.04 0.00 94 1009.9
20260906094540 69 117 6.0 11.0 0.00 0.14 0.00 94 1009.7
20260906093027 69 114 5.0 9.0 0.00 0.14 0.00 94 1009.9
20260906091524 69 107 3.0 8.0 0.00 0.14 0.00 93 1010.2
20260906090026 69 106 3.0 7.0 0.00 0.14 0.00 93 1010.3
20260906084528 69 107 2.0 9.0 0.00 0.14 0.00 93 1010.4
20260906083021 69 94 2.0 6.0 0.00 0.14 0.00 92 1010.3
20260906081539 69 94 1.0 7.0 0.00 0.14 0.00 92 1010.0
20260906080018 70 105 2.0 8.0 0.00 0.14 0.00 91 1009.8
20260906074517 70 113 3.0 8.0 0.00 0.14 0.00 91 1009.4
20260906073017 70 117 3.0 9.0 0.00 0.14 0.00 91 1009.4
20260906071515 70 94 2.0 8.0 0.00 0.14 0.00 90 1009.5
20260906070014 70 94 2.0 7.0 0.00 0.14 0.00 90 1009.4
20260906064512 71 113 2.0 8.0 0.00 0.14 0.00 89 1009.5
20260906063011 71 113 2.0 7.0 0.00 0.14 0.00 89 1009.6
20260906061512 71 118 6.0 11.0 0.00 0.14 0.00 90 1009.7
20260906060006 71 117 1.0 7.0 0.00 0.14 0.00 90 1010.0
20260906054505 71 117 3.0 7.0 0.00 0.14 0.00 89 1010.0
20260906053002 71 117 4.0 10.0 0.00 0.14 0.00 90 1009.8
20260906051501 71 121 2.0 7.0 0.00 0.14 0.00 90 1009.7
20260906050118 72 121 2.0 9.0 0.00 0.14 0.00 90 1009.6
20260906044557 72 116 6.0 11.0 0.00 0.15 0.14 90 1009.8
20260906043058 72 121 10.0 14.0 0.00 0.15 0.14 89 1009.8
20260906041556 72 89 1.0 7.0 0.00 0.15 0.14 90 1009.0
20260906040121 73 83 2.0 8.0 0.00 0.15 0.14 90 1008.9
20260906034603 73 125 1.0 8.0 0.00 0.33 0.14 89 1008.8
20260906033057 73 138 1.0 4.0 0.00 0.33 0.14 90 1008.6
20260906031601 73 138 2.0 4.0 0.00 0.33 0.14 89 1008.5
20260906030054 73 138 4.0 6.0 0.00 0.33 0.14 89 1007.8
20260906024553 74 138 4.0 7.0 0.00 0.33 0.14 88 1007.9
20260906023054 75 192 4.0 10.0 0.00 0.33 0.14 87 1008.3
20260906021602 75 173 11.0 17.0 0.00 0.33 0.14 87 1008.5
20260906020058 75 190 8.0 14.0 0.00 0.33 0.14 87 1008.4
20260906014557 75 146 9.0 12.0 0.00 0.36 0.14 88 1008.3
20260906013051 75 163 5.0 12.0 0.02 0.36 0.14 88 1008.5
20260906011551 75 164 7.0 13.0 0.03 0.36 0.14 87 1008.6
20260906010054 75 121 4.0 9.0 0.03 0.36 0.14 89 1009.4
20260906004554 76 338 0.0 3.0 0.03 0.37 0.14 87 1010.6
20260906003048 77 340 0.0 3.0 0.01 0.35 0.12 84 1010.6
20260906001610 77 340 2.0 8.0 0.00 0.34 0.11 81 1011.3
20260906000055 78 316 4.0 10.0 0.00 0.34 0.11 79 1011.6
20260905234514 79 140 5.0 10.0 0.00 0.35 0.11 75 1010.4
20260905233052 80 123 5.0 9.0 0.00 0.35 0.11 72 1010.0
20260905231524 80 117 4.0 7.0 0.00 0.35 0.11 72 1009.6
20260905230059 81 117 0.0 3.0 0.00 0.35 0.11 73 1009.9
20260905224511 82 117 2.0 5.0 0.00 0.35 0.11 66 1009.3
20260905223029 83 116 4.0 10.0 0.00 0.35 0.11 63 1008.8
20260905221549 85 120 9.0 16.0 0.00 0.35 0.11 59 1007.9
20260905220006 86 114 11.0 16.0 0.00 0.35 0.11 58 1007.4
20260905214540 86 128 10.0 17.0 0.00 0.35 0.11 59 1008.0
20260905213111 86 124 10.0 15.0 0.00 0.35 0.11 58 1008.3
20260905211543 86 133 11.0 17.0 0.00 0.35 0.11 59 1008.6
20260905210018 86 129 11.0 17.0 0.00 0.35 0.11 59 1008.6
20260905204555 86 117 5.0 13.0 0.00 0.35 0.11 62 1008.5